Time,TemperatureF,DewpointF,PressureIn,WindDirection,WindDirectionDegrees,WindSpeedMPH,WindSpeedGustMPH,Humidity,HourlyPrecipIn,Conditions,Clouds,dailyrainin,SoftwareType,DateUTC
2013-01-13 00:02:00,28.0,17.0,-100.00,East,89,7.0,9.0,64,-99.99,,,-99.99,,2013-01-13 08:02:00,
2013-01-13 00:11:00,28.0,18.0,-100.00,East,82,6.0,7.0,66,-99.99,,,-99.99,,2013-01-13 08:11:00,
2013-01-13 00:22:00,28.0,19.0,-100.00,East,86,7.0,9.0,68,-99.99,,,-99.99,,2013-01-13 08:22:00,
2013-01-13 00:32:00,27.0,18.0,-100.00,East,89,6.0,8.0,68,-99.99,,,-99.99,,2013-01-13 08:32:00,
2013-01-13 00:42:00,28.0,18.0,-100.00,East,87,6.0,8.0,67,-99.99,,,-99.99,,2013-01-13 08:42:00,
2013-01-13 00:52:00,28.0,18.0,-100.00,East,84,6.0,8.0,65,-99.99,,,-99.99,,2013-01-13 08:52:00,
2013-01-13 01:02:00,28.0,18.0,-100.00,East,81,5.0,6.0,65,-99.99,,,-99.99,,2013-01-13 09:02:00,
2013-01-13 01:11:00,28.0,18.0,-100.00,East,83,5.0,7.0,66,-99.99,,,-99.99,,2013-01-13 09:11:00,
2013-01-13 01:22:00,27.0,18.0,-100.00,East,82,5.0,6.0,67,-99.99,,,-99.99,,2013-01-13 09:22:00,
2013-01-13 01:32:00,27.0,18.0,-100.00,East,89,5.0,7.0,68,-99.99,,,-99.99,,2013-01-13 09:32:00,
2013-01-13 01:42:00,27.0,17.0,-100.00,East,86,5.0,6.0,66,-99.99,,,-99.99,,2013-01-13 09:42:00,
2013-01-13 01:52:00,27.0,17.0,-100.00,East,88,5.0,6.0,65,-99.99,,,-99.99,,2013-01-13 09:52:00,
2013-01-13 02:02:00,27.0,16.0,-100.00,East,87,5.0,6.0,63,-99.99,,,-99.99,,2013-01-13 10:02:00,
2013-01-13 02:11:00,28.0,16.0,-100.00,East,88,5.0,7.0,60,-99.99,,,-99.99,,2013-01-13 10:11:00,
2013-01-13 02:22:00,28.0,14.0,-100.00,East,89,5.0,7.0,55,-99.99,,,-99.99,,2013-01-13 10:22:00,
2013-01-13 02:32:00,28.0,13.0,-100.00,East,93,6.0,7.0,52,-99.99,,,-99.99,,2013-01-13 10:32:00,
2013-01-13 02:42:00,28.0,11.0,-100.00,East,94,5.0,8.0,49,-99.99,,,-99.99,,2013-01-13 10:42:00,
2013-01-13 02:52:00,29.0,9.0,-100.00,East,96,5.0,8.0,43,-99.99,,,-99.99,,2013-01-13 10:52:00,
2013-01-13 03:02:00,29.0,8.0,-100.00,East,90,5.0,7.0,41,-99.99,,,-99.99,,2013-01-13 11:02:00,
2013-01-13 03:12:00,29.0,9.0,-100.00,East,90,4.0,7.0,42,-99.99,,,-99.99,,2013-01-13 11:12:00,
2013-01-13 03:22:00,28.0,8.0,-100.00,East,83,3.0,5.0,43,-99.99,,,-99.99,,2013-01-13 11:22:00,
2013-01-13 03:32:00,29.0,9.0,-100.00,ESE,105,2.0,5.0,42,-99.99,,,-99.99,,2013-01-13 11:32:00,
2013-01-13 03:42:00,29.0,9.0,-100.00,ESE,115,2.0,3.0,42,-99.99,,,-99.99,,2013-01-13 11:42:00,
2013-01-13 03:52:00,29.0,9.0,-100.00,SE,125,3.0,5.0,43,-99.99,,,-99.99,,2013-01-13 11:52:00,
2013-01-13 04:02:00,29.0,11.0,-100.00,ESE,113,4.0,6.0,47,-99.99,,,-99.99,,2013-01-13 12:02:00,
2013-01-13 04:12:00,28.0,13.0,-100.00,ESE,105,7.0,12.0,52,-99.99,,,-99.99,,2013-01-13 12:12:00,
2013-01-13 04:22:00,28.0,13.0,-100.00,ESE,106,8.0,11.0,53,-99.99,,,-99.99,,2013-01-13 12:22:00,
2013-01-13 04:32:00,29.0,14.0,-100.00,ESE,117,8.0,12.0,54,-99.99,,,-99.99,,2013-01-13 12:32:00,
2013-01-13 04:42:00,29.0,14.0,-100.00,ESE,116,7.0,11.0,54,-99.99,,,-99.99,,2013-01-13 12:42:00,
2013-01-13 04:52:00,29.0,14.0,-100.00,ESE,117,8.0,11.0,54,-99.99,,,-99.99,,2013-01-13 12:52:00,
2013-01-13 05:02:00,28.0,14.0,-100.00,ESE,111,7.0,10.0,55,-99.99,,,-99.99,,2013-01-13 13:02:00,
2013-01-13 05:12:00,28.0,14.0,-100.00,ESE,114,7.0,9.0,54,-99.99,,,-99.99,,2013-01-13 13:12:00,
2013-01-13 05:22:00,28.0,14.0,-100.00,ESE,107,5.0,8.0,55,-99.99,,,-99.99,,2013-01-13 13:22:00,
2013-01-13 05:32:00,28.0,15.0,-100.00,ESE,114,6.0,9.0,58,-99.99,,,-99.99,,2013-01-13 13:32:00,
2013-01-13 05:42:00,28.0,15.0,-100.00,ESE,114,6.0,9.0,58,-99.99,,,-99.99,,2013-01-13 13:42:00,
2013-01-13 05:53:00,28.0,16.0,-100.00,ESE,104,6.0,9.0,59,-99.99,,,-99.99,,2013-01-13 13:53:00,
2013-01-13 06:02:00,28.0,16.0,-100.00,ESE,106,7.0,11.0,60,-99.99,,,-99.99,,2013-01-13 14:02:00,
2013-01-13 06:12:00,29.0,16.0,-100.00,ESE,114,6.0,9.0,59,-99.99,,,-99.99,,2013-01-13 14:12:00,
2013-01-13 06:22:00,29.0,16.0,-100.00,SE,125,5.0,9.0,59,-99.99,,,-99.99,,2013-01-13 14:22:00,
2013-01-13 06:32:00,29.0,16.0,-100.00,ESE,118,7.0,11.0,57,-99.99,,,-99.99,,2013-01-13 14:32:00,
2013-01-13 06:42:00,29.0,15.0,-100.00,ESE,105,7.0,10.0,56,-99.99,,,-99.99,,2013-01-13 14:42:00,
2013-01-13 06:52:00,29.0,15.0,-100.00,ESE,111,5.0,8.0,55,-99.99,,,-99.99,,2013-01-13 14:52:00,
2013-01-13 07:02:00,29.0,15.0,-100.00,ESE,112,5.0,10.0,55,-99.99,,,-99.99,,2013-01-13 15:02:00,
2013-01-13 07:12:00,29.0,15.0,-100.00,ESE,106,4.0,6.0,56,-99.99,,,-99.99,,2013-01-13 15:12:00,
2013-01-13 07:22:00,29.0,15.0,-100.00,ESE,102,3.0,5.0,56,-99.99,,,-99.99,,2013-01-13 15:22:00,
2013-01-13 07:33:00,29.0,16.0,-100.00,East,96,4.0,6.0,57,-99.99,,,-99.99,,2013-01-13 15:33:00,
2013-01-13 07:42:00,29.0,15.0,-100.00,East,87,4.0,7.0,56,-99.99,,,-99.99,,2013-01-13 15:42:00,
2013-01-13 07:52:00,28.0,15.0,-100.00,East,99,5.0,7.0,58,-99.99,,,-99.99,,2013-01-13 15:52:00,
2013-01-13 08:03:00,28.0,16.0,-100.00,East,100,4.0,6.0,59,-99.99,,,-99.99,,2013-01-13 16:03:00,
2013-01-13 08:12:00,29.0,16.0,-100.00,ESE,102,5.0,7.0,58,-99.99,,,-99.99,,2013-01-13 16:12:00,
2013-01-13 08:22:00,30.0,16.0,-100.00,ESE,104,6.0,8.0,55,-99.99,,,-99.99,,2013-01-13 16:22:00,
2013-01-13 08:33:00,31.0,15.0,-100.00,ESE,114,6.0,10.0,51,-99.99,,,-99.99,,2013-01-13 16:33:00,
2013-01-13 08:42:00,32.0,14.0,-100.00,ESE,107,8.0,11.0,46,-99.99,,,-99.99,,2013-01-13 16:42:00,
2013-01-13 08:52:00,33.0,13.0,-100.00,ESE,104,8.0,12.0,43,-99.99,,,-99.99,,2013-01-13 16:52:00,
2013-01-13 09:02:00,33.0,12.0,-100.00,ESE,112,9.0,12.0,41,-99.99,,,-99.99,,2013-01-13 17:02:00,
2013-01-13 09:12:00,34.0,12.0,-100.00,ESE,109,8.0,11.0,39,-99.99,,,-99.99,,2013-01-13 17:12:00,
2013-01-13 09:22:00,35.0,11.0,-100.00,East,98,7.0,10.0,36,-99.99,,,-99.99,,2013-01-13 17:22:00,
2013-01-13 09:32:00,36.0,11.0,-100.00,East,100,5.0,8.0,35,-99.99,,,-99.99,,2013-01-13 17:32:00,
2013-01-13 09:42:00,36.0,11.0,-100.00,ESE,119,5.0,7.0,35,-99.99,,,-99.99,,2013-01-13 17:42:00,
2013-01-13 09:52:00,37.0,11.0,-100.00,ESE,112,4.0,9.0,34,-99.99,,,-99.99,,2013-01-13 17:52:00,
2013-01-13 10:02:00,37.0,11.0,-100.00,ESE,102,6.0,10.0,34,-99.99,,,-99.99,,2013-01-13 18:02:00,
2013-01-13 10:12:00,36.0,10.0,-100.00,East,89,7.0,13.0,34,-99.99,,,-99.99,,2013-01-13 18:12:00,
2013-01-13 10:22:00,37.0,12.0,-100.00,SE,128,8.0,15.0,35,-99.99,,,-99.99,,2013-01-13 18:22:00,
2013-01-13 10:32:00,37.0,11.0,-100.00,SSE,153,6.0,11.0,34,-99.99,,,-99.99,,2013-01-13 18:32:00,
2013-01-13 10:42:00,38.0,12.0,-100.00,ESE,113,6.0,11.0,34,-99.99,,,-99.99,,2013-01-13 18:42:00,
2013-01-13 10:53:00,37.0,11.0,-100.00,SSE,147,5.0,10.0,33,-99.99,,,-99.99,,2013-01-13 18:53:00,
2013-01-13 11:02:00,38.0,11.0,-100.00,WSW,242,4.0,12.0,33,-99.99,,,-99.99,,2013-01-13 19:02:00,
2013-01-13 11:12:00,38.0,11.0,-100.00,SE,133,6.0,11.0,32,-99.99,,,-99.99,,2013-01-13 19:12:00,
2013-01-13 11:22:00,38.0,11.0,-100.00,ESE,107,6.0,12.0,32,-99.99,,,-99.99,,2013-01-13 19:22:00,
2013-01-13 11:32:00,38.0,11.0,-100.00,East,92,5.0,9.0,32,-99.99,,,-99.99,,2013-01-13 19:32:00,
2013-01-13 11:42:00,39.0,12.0,-100.00,ESE,123,4.0,9.0,32,-99.99,,,-99.99,,2013-01-13 19:42:00,
2013-01-13 11:52:00,39.0,12.0,-100.00,South,190,3.0,9.0,32,-99.99,,,-99.99,,2013-01-13 19:52:00,
2013-01-13 12:02:00,39.0,12.0,-100.00,SSE,166,5.0,9.0,33,-99.99,,,-99.99,,2013-01-13 20:02:00,
2013-01-13 12:12:00,40.0,14.0,-100.00,SW,233,5.0,8.0,34,-99.99,,,-99.99,,2013-01-13 20:12:00,
2013-01-13 12:22:00,39.0,13.0,-100.00,SW,231,7.0,12.0,34,-99.99,,,-99.99,,2013-01-13 20:22:00,
2013-01-13 12:32:00,39.0,13.0,-100.00,West,268,6.0,10.0,34,-99.99,,,-99.99,,2013-01-13 20:32:00,
2013-01-13 12:43:00,39.0,12.0,-100.00,West,273,6.0,12.0,33,-99.99,,,-99.99,,2013-01-13 20:43:00,
2013-01-13 12:52:00,39.0,12.0,-100.00,WSW,247,5.0,12.0,32,-99.99,,,-99.99,,2013-01-13 20:52:00,
2013-01-13 13:02:00,39.0,14.0,-100.00,WSW,240,8.0,14.0,35,-99.99,,,-99.99,,2013-01-13 21:02:00,
2013-01-13 13:12:00,39.0,14.0,-100.00,West,277,10.0,21.0,35,-99.99,,,-99.99,,2013-01-13 21:12:00,
2013-01-13 13:22:00,39.0,14.0,-100.00,West,267,9.0,16.0,35,-99.99,,,-99.99,,2013-01-13 21:22:00,
2013-01-13 13:32:00,39.0,14.0,-100.00,WSW,257,9.0,15.0,35,-99.99,,,-99.99,,2013-01-13 21:32:00,
2013-01-13 13:42:00,40.0,14.0,-100.00,West,260,6.0,12.0,34,-99.99,,,-99.99,,2013-01-13 21:42:00,
2013-01-13 13:52:00,40.0,13.0,-100.00,SSW,209,6.0,13.0,33,-99.99,,,-99.99,,2013-01-13 21:52:00,
2013-01-13 14:02:00,40.0,13.0,-100.00,WSW,250,9.0,15.0,32,-99.99,,,-99.99,,2013-01-13 22:02:00,
2013-01-13 14:12:00,40.0,13.0,-100.00,WSW,255,8.0,14.0,33,-99.99,,,-99.99,,2013-01-13 22:12:00,
2013-01-13 14:22:00,40.0,13.0,-100.00,West,272,5.0,13.0,32,-99.99,,,-99.99,,2013-01-13 22:22:00,
2013-01-13 14:33:00,40.0,13.0,-100.00,West,263,8.0,15.0,32,-99.99,,,-99.99,,2013-01-13 22:33:00,
2013-01-13 14:42:00,40.0,13.0,-100.00,West,263,8.0,15.0,32,-99.99,,,-99.99,,2013-01-13 22:42:00,
2013-01-13 14:52:00,40.0,12.0,-100.00,SW,233,9.0,14.0,31,-99.99,,,-99.99,,2013-01-13 22:52:00,
2013-01-13 15:02:00,40.0,12.0,-100.00,WSW,250,9.0,16.0,31,-99.99,,,-99.99,,2013-01-13 23:02:00,
2013-01-13 15:12:00,39.0,13.0,-100.00,WSW,248,7.0,15.0,34,-99.99,,,-99.99,,2013-01-13 23:12:00,
2013-01-13 15:22:00,40.0,16.0,-100.00,West,262,10.0,16.0,37,-99.99,,,-99.99,,2013-01-13 23:22:00,
2013-01-13 15:32:00,40.0,16.0,-100.00,WSW,257,10.0,15.0,38,-99.99,,,-99.99,,2013-01-13 23:32:00,
2013-01-13 15:42:00,40.0,17.0,-100.00,West,275,10.0,17.0,39,-99.99,,,-99.99,,2013-01-13 23:42:00,
2013-01-13 15:52:00,40.0,18.0,-100.00,West,278,12.0,19.0,41,-99.99,,,-99.99,,2013-01-13 23:52:00,
2013-01-13 16:02:00,38.0,19.0,-100.00,WNW,287,13.0,19.0,45,-99.99,,,-99.99,,2013-01-14 00:02:00,
2013-01-13 16:12:00,37.0,19.0,-100.00,WNW,288,14.0,20.0,47,-99.99,,,-99.99,,2013-01-14 00:12:00,
2013-01-13 16:22:00,37.0,20.0,-100.00,West,278,9.0,15.0,49,-99.99,,,-99.99,,2013-01-14 00:22:00,
2013-01-13 16:32:00,36.0,20.0,-100.00,West,269,11.0,18.0,52,-99.99,,,-99.99,,2013-01-14 00:32:00,
2013-01-13 16:42:00,36.0,22.0,-100.00,West,262,10.0,17.0,56,-99.99,,,-99.99,,2013-01-14 00:42:00,
2013-01-13 16:52:00,35.0,23.0,-100.00,West,264,10.0,15.0,60,-99.99,,,-99.99,,2013-01-14 00:52:00,
2013-01-13 17:02:00,35.0,23.0,-100.00,West,268,9.0,13.0,60,-99.99,,,-99.99,,2013-01-14 01:02:00,
2013-01-13 17:12:00,35.0,23.0,-100.00,West,265,8.0,14.0,61,-99.99,,,-99.99,,2013-01-14 01:12:00,
2013-01-13 17:22:00,35.0,23.0,-100.00,West,270,9.0,13.0,62,-99.99,,,-99.99,,2013-01-14 01:22:00,
2013-01-13 17:32:00,34.0,23.0,-100.00,West,271,8.0,14.0,64,-99.99,,,-99.99,,2013-01-14 01:32:00,
2013-01-13 17:42:00,34.0,23.0,-100.00,West,276,8.0,15.0,64,-99.99,,,-99.99,,2013-01-14 01:42:00,
2013-01-13 17:52:00,34.0,23.0,-100.00,West,280,9.0,13.0,65,-99.99,,,-99.99,,2013-01-14 01:52:00,
2013-01-13 18:02:00,33.0,23.0,-100.00,West,261,4.0,10.0,66,-99.99,,,-99.99,,2013-01-14 02:02:00,
2013-01-13 18:12:00,33.0,24.0,-100.00,WSW,254,5.0,8.0,68,-99.99,,,-99.99,,2013-01-14 02:12:00,
2013-01-13 18:22:00,33.0,24.0,-100.00,West,264,4.0,5.0,68,-99.99,,,-99.99,,2013-01-14 02:22:00,
2013-01-13 18:32:00,32.0,23.0,-100.00,WSW,255,4.0,6.0,69,-99.99,,,-99.99,,2013-01-14 02:32:00,
2013-01-13 18:42:00,32.0,23.0,-100.00,WSW,255,4.0,5.0,69,-99.99,,,-99.99,,2013-01-14 02:42:00,
2013-01-13 18:53:00,32.0,23.0,-100.00,WSW,253,3.0,6.0,69,-99.99,,,-99.99,,2013-01-14 02:53:00,
2013-01-13 19:02:00,31.0,23.0,-100.00,WSW,250,3.0,5.0,71,-99.99,,,-99.99,,2013-01-14 03:02:00,
2013-01-13 19:12:00,31.0,23.0,-100.00,SW,234,2.0,4.0,71,-99.99,,,-99.99,,2013-01-14 03:12:00,
2013-01-13 19:22:00,31.0,23.0,-100.00,WSW,248,2.0,4.0,72,-99.99,,,-99.99,,2013-01-14 03:22:00,
2013-01-13 19:32:00,31.0,23.0,-100.00,West,264,2.0,3.0,72,-99.99,,,-99.99,,2013-01-14 03:32:00,
2013-01-13 19:42:00,31.0,23.0,-100.00,NNE,21,3.0,4.0,73,-99.99,,,-99.99,,2013-01-14 03:42:00,
2013-01-13 19:52:00,30.0,23.0,-100.00,East,89,3.0,4.0,74,-99.99,,,-99.99,,2013-01-14 03:52:00,
2013-01-13 20:02:00,30.0,23.0,-100.00,East,83,3.0,4.0,75,-99.99,,,-99.99,,2013-01-14 04:02:00,
2013-01-13 20:12:00,30.0,23.0,-100.00,East,80,3.0,4.0,75,-99.99,,,-99.99,,2013-01-14 04:12:00,
2013-01-13 20:22:00,29.0,23.0,-100.00,East,88,3.0,5.0,77,-99.99,,,-99.99,,2013-01-14 04:22:00,
2013-01-13 20:32:00,29.0,23.0,-100.00,East,79,4.0,5.0,78,-99.99,,,-99.99,,2013-01-14 04:32:00,
2013-01-13 20:42:00,29.0,23.0,-100.00,East,86,4.0,5.0,77,-99.99,,,-99.99,,2013-01-14 04:42:00,
2013-01-13 20:52:00,29.0,23.0,-100.00,East,86,2.0,4.0,79,-99.99,,,-99.99,,2013-01-14 04:52:00,
2013-01-13 21:03:00,29.0,23.0,-100.00,East,80,2.0,3.0,79,-99.99,,,-99.99,,2013-01-14 05:03:00,
2013-01-13 21:12:00,28.0,23.0,-100.00,East,89,3.0,4.0,80,-99.99,,,-99.99,,2013-01-14 05:12:00,
2013-01-13 21:22:00,28.0,23.0,-100.00,East,80,3.0,4.0,81,-99.99,,,-99.99,,2013-01-14 05:22:00,
2013-01-13 21:32:00,29.0,23.0,-100.00,East,82,3.0,4.0,79,-99.99,,,-99.99,,2013-01-14 05:32:00,
2013-01-13 21:42:00,28.0,23.0,-100.00,East,92,4.0,6.0,81,-99.99,,,-99.99,,2013-01-14 05:42:00,
2013-01-13 21:52:00,27.0,22.0,-100.00,East,93,5.0,7.0,80,-99.99,,,-99.99,,2013-01-14 05:52:00,
2013-01-13 22:02:00,28.0,21.0,-100.00,East,85,3.0,4.0,75,-99.99,,,-99.99,,2013-01-14 06:02:00,
2013-01-13 22:11:00,28.0,20.0,-100.00,East,83,5.0,8.0,73,-99.99,,,-99.99,,2013-01-14 06:11:00,
2013-01-13 22:22:00,28.0,20.0,-100.00,East,88,4.0,6.0,73,-99.99,,,-99.99,,2013-01-14 06:22:00,
2013-01-13 22:32:00,28.0,20.0,-100.00,East,86,3.0,5.0,70,-99.99,,,-99.99,,2013-01-14 06:32:00,
2013-01-13 22:42:00,29.0,16.0,-100.00,East,89,3.0,6.0,59,-99.99,,,-99.99,,2013-01-14 06:42:00,
2013-01-13 22:52:00,29.0,15.0,-100.00,East,87,3.0,6.0,56,-99.99,,,-99.99,,2013-01-14 06:52:00,
2013-01-13 23:02:00,29.0,14.0,-100.00,East,90,3.0,5.0,53,-99.99,,,-99.99,,2013-01-14 07:02:00,
2013-01-13 23:12:00,30.0,12.0,-100.00,ENE,66,3.0,6.0,46,-99.99,,,-99.99,,2013-01-14 07:12:00,
2013-01-13 23:22:00,30.0,10.0,-100.00,ENE,57,1.0,3.0,43,-99.99,,,-99.99,,2013-01-14 07:22:00,
2013-01-13 23:32:00,30.0,11.0,-100.00,ENE,69,1.0,4.0,44,-99.99,,,-99.99,,2013-01-14 07:32:00,
2013-01-13 23:42:00,30.0,11.0,-100.00,ENE,69,1.0,4.0,44,-99.99,,,-99.99,,2013-01-14 07:42:00,
2013-01-13 23:52:00,29.0,10.0,-100.00,ESE,118,1.0,6.0,45,-99.99,,,-99.99,,2013-01-14 07:52:00,